Weather in Polynyanka

Russia / Tomsk District     56°57′11″N   82°30′29″E
temp.,
°C
wind,
m/s
gust,
m/s
humid.,
%
clouds,
%
prec.,
mm/h
press.,
hPa
HPBL,
m
24 june, thu
thu2401:00+7ne2585100 0.0 101181
04:00+6ene259797 0.0 1009102
07:00+9ne388142 0.0 1009282
10:00+15ene465650 0.0 10071213
13:00+17ne454899 0.0 10061713
16:00+18ne3547100 0.0 10052293
19:00+17n4649100 0.0 10051270
22:00+14n4955100 0.0 1006710
25 june, fri
fri2501:00+11n31066100 0.0 1006448
04:00+8nnw3985100 0.0 1006309
07:00+8nnw3685100 0.0 1007214
10:00+13nw3464100 0.0 1006813
13:00+16wnw3248100 0.0 10061739
16:00+16wnw335113 0.0 10081429
19:00+15nw3558100 0.0 1008573
22:00+13wsw2473100 0.0 1009114
26 june, sat
sat2601:00+12w2875100 0.0 1010236
04:00+10wsw2787100 0.1 1010207
07:00+11w2784100 0.1 1011272
10:00+12wnw3778100 0.1 1012655
13:00+10w3697100 1.3 1012454
16:00+15wnw3474100 0.1 1012877
19:00+15wsw2582100 0.8 1011213
22:00+12wsw249087 0.4 101272
27 june, sun
sun2701:00+9sw369499 0.4 1012104
04:00+9wsw2497100 0.1 101268
07:00+11wsw279381 0.2 1012194
10:00+13w2592100 0.6 1013370
13:00+18wnw35665 1.3 10121201
16:00+20w454828 0.1 10112062
19:00+20wsw334918 0.1 10111530
22:00+16wsw227277 0.0 101121
28 june, mon
mon2801:00+12nne1292100 0.9 101224
04:00+10w22955 0.0 101212
07:00+13n019039 0.0 101357
10:00+18ne225947 0.0 1013595
13:00+22n223496 0.0 10132182
16:00+23n22305 0.0 10132511
19:00+22n2241100 0.0 10132453
22:00+15ne257044 0.0 101580